| time (UTC) | temp F | wind direction | speed MPH | gust MPH | rain 1hr in | rain 24hr in | rain mn in | humidity % | barometer mb |
| 20260902194441 | 72 | 220 | 0.0 | 2.0 | 0.00 | 0.00 | 0.00 | 70 | 1016.9 |
| 20260902193941 | 72 | 220 | 0.0 | 0.0 | 0.00 | 0.00 | 0.00 | 70 | 1016.8 |
| 20260902193441 | 72 | 220 | 0.0 | 1.0 | 0.00 | 0.00 | 0.00 | 70 | 1016.9 |
| 20260902192940 | 72 | 220 | 0.0 | 2.0 | 0.00 | 0.00 | 0.00 | 68 | 1017.1 |
| 20260902192441 | 72 | 216 | 0.0 | 3.0 | 0.00 | 0.00 | 0.00 | 69 | 1017.0 |
| 20260902191941 | 72 | 216 | 1.0 | 3.0 | 0.00 | 0.00 | 0.00 | 69 | 1017.0 |
| 20260902191441 | 73 | 139 | 0.0 | 1.0 | 0.00 | 0.00 | 0.00 | 69 | 1017.2 |
| 20260902190950 | 72 | 128 | 0.0 | 1.0 | 0.00 | 0.00 | 0.00 | 71 | 1017.0 |
| 20260902190444 | 72 | 128 | 0.0 | 2.0 | 0.00 | 0.00 | 0.00 | 70 | 1016.9 |
| 20260902185944 | 72 | 128 | 0.0 | 2.0 | 0.00 | 0.00 | 0.00 | 72 | 1017.1 |
| 20260902185449 | 71 | 128 | 1.0 | 2.0 | 0.00 | 0.00 | 0.00 | 72 | 1017.1 |
| 20260902184940 | 71 | 128 | 0.0 | 0.0 | 0.00 | 0.00 | 0.00 | 72 | 1017.2 |
| 20260902184440 | 71 | 128 | 0.0 | 2.0 | 0.00 | 0.00 | 0.00 | 70 | 1017.3 |
| 20260902183946 | 72 | 128 | 1.0 | 3.0 | 0.00 | 0.00 | 0.00 | 69 | 1017.3 |
| 20260902183443 | 72 | 128 | 0.0 | 3.0 | 0.00 | 0.00 | 0.00 | 69 | 1017.5 |
| 20260902182940 | 73 | 128 | 1.0 | 6.0 | 0.00 | 0.00 | 0.00 | 67 | 1017.5 |
| 20260902182443 | 73 | 138 | 0.0 | 6.0 | 0.00 | 0.00 | 0.00 | 66 | 1017.5 |
| 20260902181940 | 74 | 161 | 0.0 | 1.0 | 0.00 | 0.00 | 0.00 | 67 | 1017.5 |
| 20260902181447 | 74 | 161 | 0.0 | 4.0 | 0.00 | 0.00 | 0.00 | 66 | 1017.4 |
| 20260902180941 | 74 | 108 | 0.0 | 3.0 | 0.00 | 0.00 | 0.00 | 69 | 1017.2 |
| 20260902180446 | 74 | 107 | 0.0 | 5.0 | 0.00 | 0.00 | 0.00 | 70 | 1017.2 |
| 20260902175940 | 74 | 105 | 1.0 | 4.0 | 0.00 | 0.00 | 0.00 | 67 | 1017.4 |
| 20260902175440 | 73 | 136 | 1.0 | 2.0 | 0.00 | 0.00 | 0.00 | 68 | 1017.3 |
| 20260902174946 | 72 | 136 | 0.0 | 2.0 | 0.00 | 0.00 | 0.00 | 71 | 1017.3 |
| 20260902174444 | 72 | 136 | 0.0 | 1.0 | 0.00 | 0.00 | 0.00 | 69 | 1017.4 |
| 20260902173940 | 71 | 136 | 0.0 | 2.0 | 0.00 | 0.00 | 0.00 | 70 | 1017.6 |
| 20260902173447 | 71 | 138 | 0.0 | 3.0 | 0.00 | 0.00 | 0.00 | 70 | 1017.5 |
| 20260902172940 | 71 | 104 | 0.0 | 1.0 | 0.00 | 0.00 | 0.00 | 71 | 1017.6 |
| 20260902172440 | 71 | 104 | 0.0 | 3.0 | 0.00 | 0.00 | 0.00 | 70 | 1017.6 |
| 20260902171940 | 71 | 140 | 0.0 | 2.0 | 0.00 | 0.00 | 0.00 | 71 | 1017.6 |
| 20260902171440 | 71 | 140 | 1.0 | 2.0 | 0.00 | 0.00 | 0.00 | 71 | 1017.5 |
| 20260902170943 | 71 | 140 | 0.0 | 2.0 | 0.00 | 0.00 | 0.00 | 69 | 1017.5 |
| 20260902170440 | 71 | 140 | 0.0 | 2.0 | 0.00 | 0.00 | 0.00 | 70 | 1017.6 |
| 20260902165940 | 71 | 133 | 0.0 | 2.0 | 0.00 | 0.00 | 0.00 | 69 | 1017.6 |
| 20260902165440 | 71 | 97 | 0.0 | 3.0 | 0.00 | 0.00 | 0.00 | 68 | 1017.7 |
| 20260902164946 | 71 | 129 | 0.0 | 3.0 | 0.00 | 0.00 | 0.00 | 70 | 1017.7 |
| 20260902164440 | 71 | 133 | 0.0 | 1.0 | 0.00 | 0.00 | 0.00 | 71 | 1017.7 |
| 20260902163940 | 71 | 134 | 0.0 | 1.0 | 0.00 | 0.00 | 0.00 | 70 | 1017.9 |
| 20260902163446 | 71 | 135 | 0.0 | 1.0 | 0.00 | 0.00 | 0.00 | 70 | 1017.8 |
| 20260902162940 | 71 | 135 | 0.0 | 2.0 | 0.00 | 0.00 | 0.00 | 72 | 1017.9 |
| 20260902162443 | 71 | 134 | 1.0 | 4.0 | 0.00 | 0.00 | 0.00 | 70 | 1017.9 |
| 20260902161943 | 71 | 131 | 1.0 | 3.0 | 0.00 | 0.00 | 0.00 | 72 | 1018.0 |
| 20260902161446 | 71 | 106 | 0.0 | 2.0 | 0.00 | 0.00 | 0.00 | 71 | 1018.1 |
| 20260902160946 | 71 | 106 | 0.0 | 3.0 | 0.00 | 0.00 | 0.00 | 70 | 1018.3 |
| 20260902160440 | 70 | 143 | 0.0 | 2.0 | 0.00 | 0.00 | 0.00 | 70 | 1018.2 |
| 20260902155940 | 70 | 143 | 1.0 | 3.0 | 0.00 | 0.00 | 0.00 | 73 | 1018.1 |
| 20260902155440 | 70 | 149 | 1.0 | 4.0 | 0.00 | 0.00 | 0.00 | 73 | 1018.3 |
| 20260902154940 | 70 | 149 | 0.0 | 2.0 | 0.00 | 0.00 | 0.00 | 73 | 1018.3 |
| 20260902154440 | 70 | 149 | 0.0 | 3.0 | 0.00 | 0.00 | 0.00 | 72 | 1018.3 |
| 20260902153940 | 70 | 116 | 0.0 | 1.0 | 0.00 | 0.00 | 0.00 | 73 | 1018.5 |
| 20260902153446 | 70 | 116 | 0.0 | 3.0 | 0.00 | 0.00 | 0.00 | 70 | 1018.5 |
| 20260902152943 | 70 | 74 | 0.0 | 1.0 | 0.00 | 0.00 | 0.00 | 74 | 1018.4 |
| 20260902152440 | 70 | 74 | 0.0 | 3.0 | 0.00 | 0.00 | 0.00 | 73 | 1018.3 |
| 20260902151940 | 69 | 136 | 0.0 | 1.0 | 0.00 | 0.00 | 0.00 | 74 | 1018.2 |
| 20260902151446 | 69 | 136 | 0.0 | 3.0 | 0.00 | 0.00 | 0.00 | 72 | 1018.2 |
| 20260902150943 | 69 | 159 | 0.0 | 2.0 | 0.00 | 0.00 | 0.00 | 73 | 1018.4 |
| 20260902150439 | 69 | 119 | 0.0 | 2.0 | 0.00 | 0.00 | 0.00 | 74 | 1018.4 |
| 20260902145940 | 68 | 119 | 2.0 | 2.0 | 0.00 | 0.00 | 0.00 | 73 | 1018.4 |
| 20260902145442 | 68 | 106 | 0.0 | 5.0 | 0.00 | 0.00 | 0.00 | 74 | 1018.4 |
| 20260902144939 | 68 | 118 | 0.0 | 1.0 | 0.00 | 0.00 | 0.00 | 76 | 1018.5 |
| 20260902144440 | 68 | 118 | 0.0 | 1.0 | 0.00 | 0.00 | 0.00 | 75 | 1018.6 |
| 20260902143942 | 67 | 118 | 0.0 | 2.0 | 0.00 | 0.00 | 0.00 | 74 | 1018.8 |
| 20260902143443 | 67 | 117 | 0.0 | 2.0 | 0.00 | 0.00 | 0.00 | 75 | 1018.8 |
| 20260902142939 | 67 | 117 | 0.0 | 1.0 | 0.00 | 0.00 | 0.00 | 76 | 1018.8 |
| 20260902142439 | 67 | 117 | 0.0 | 2.0 | 0.00 | 0.00 | 0.00 | 76 | 1018.9 |
| 20260902141939 | 67 | 117 | 0.0 | 1.0 | 0.00 | 0.00 | 0.00 | 76 | 1018.7 |
| 20260902141439 | 67 | 140 | 0.0 | 2.0 | 0.00 | 0.00 | 0.00 | 76 | 1018.6 |
| 20260902140949 | 67 | 189 | 0.0 | 4.0 | 0.00 | 0.00 | 0.00 | 77 | 1018.5 |
| 20260902140445 | 66 | 147 | 0.0 | 0.0 | 0.00 | 0.00 | 0.00 | 76 | 1018.3 |
| 20260902135939 | 66 | 146 | 0.0 | 1.0 | 0.00 | 0.00 | 0.00 | 75 | 1018.3 |
| 20260902135439 | 66 | 147 | 0.0 | 1.0 | 0.00 | 0.00 | 0.00 | 76 | 1018.3 |
| 20260902134939 | 66 | 147 | 0.0 | 1.0 | 0.00 | 0.00 | 0.00 | 77 | 1018.2 |
| 20260902134439 | 66 | 147 | 0.0 | 2.0 | 0.00 | 0.00 | 0.00 | 75 | 1018.3 |
| 20260902133939 | 66 | 147 | 1.0 | 1.0 | 0.00 | 0.00 | 0.00 | 76 | 1018.5 |
| 20260902133442 | 66 | 147 | 0.0 | 2.0 | 0.00 | 0.00 | 0.00 | 76 | 1018.5 |
| 20260902132939 | 66 | 160 | 0.0 | 1.0 | 0.00 | 0.00 | 0.00 | 76 | 1018.2 |
| 20260902132439 | 65 | 160 | 1.0 | 3.0 | 0.00 | 0.00 | 0.00 | 76 | 1018.2 |
| 20260902131939 | 65 | 160 | 0.0 | 5.0 | 0.00 | 0.00 | 0.00 | 78 | 1018.1 |
| 20260902131442 | 65 | 167 | 4.0 | 4.0 | 0.00 | 0.00 | 0.00 | 77 | 1018.1 |
| 20260902130945 | 65 | 155 | 0.0 | 4.0 | 0.00 | 0.00 | 0.00 | 77 | 1018.1 |
| 20260902130442 | 65 | 153 | 1.0 | 4.0 | 0.00 | 0.00 | 0.00 | 76 | 1018.2 |
| 20260902125939 | 65 | 135 | 0.0 | 2.0 | 0.00 | 0.00 | 0.00 | 77 | 1018.2 |
| 20260902125442 | 65 | 138 | 0.0 | 2.0 | 0.00 | 0.00 | 0.00 | 77 | 1018.3 |
| 20260902124939 | 65 | 139 | 0.0 | 4.0 | 0.00 | 0.00 | 0.00 | 77 | 1018.1 |
| 20260902124448 | 65 | 99 | 0.0 | 4.0 | 0.00 | 0.00 | 0.00 | 77 | 1018.0 |
| 20260902123942 | 64 | 201 | 0.0 | 3.0 | 0.00 | 0.00 | 0.00 | 77 | 1018.0 |
| 20260902123439 | 64 | 133 | 0.0 | 3.0 | 0.00 | 0.00 | 0.00 | 79 | 1018.0 |
| 20260902122942 | 64 | 116 | 0.0 | 5.0 | 0.00 | 0.00 | 0.00 | 79 | 1018.0 |
| 20260902122439 | 64 | 138 | 0.0 | 2.0 | 0.00 | 0.00 | 0.00 | 80 | 1018.1 |
| 20260902121939 | 64 | 36 | 1.0 | 2.0 | 0.00 | 0.00 | 0.00 | 78 | 1018.2 |
| 20260902121439 | 64 | 135 | 1.0 | 3.0 | 0.00 | 0.00 | 0.00 | 78 | 1018.2 |
| 20260902120945 | 64 | 142 | 0.0 | 2.0 | 0.00 | 0.00 | 0.00 | 79 | 1018.2 |
| 20260902120439 | 64 | 142 | 0.0 | 1.0 | 0.00 | 0.00 | 0.00 | 80 | 1018.3 |
| 20260902115939 | 64 | 142 | 0.0 | 3.0 | 0.00 | 0.00 | 0.00 | 79 | 1018.3 |
| 20260902115448 | 63 | 311 | 1.0 | 3.0 | 0.00 | 0.00 | 0.00 | 79 | 1018.3 |
| 20260902114945 | 63 | 66 | 0.0 | 2.0 | 0.00 | 0.00 | 0.00 | 80 | 1018.3 |
| 20260902114439 | 63 | 97 | 0.0 | 2.0 | 0.00 | 0.00 | 0.00 | 80 | 1018.2 |
| 20260902113939 | 63 | 112 | 1.0 | 1.0 | 0.00 | 0.00 | 0.00 | 80 | 1018.3 |
| 20260902113442 | 63 | 127 | 0.0 | 1.0 | 0.00 | 0.00 | 0.00 | 81 | 1018.3 |
| 20260902112948 | 63 | 127 | 0.0 | 5.0 | 0.00 | 0.00 | 0.00 | 80 | 1018.3 |
| 20260902112442 | 63 | 228 | 1.0 | 1.0 | 0.00 | 0.00 | 0.00 | 81 | 1018.2 |
| 20260902111941 | 63 | 228 | 0.0 | 1.0 | 0.00 | 0.00 | 0.00 | 81 | 1018.3 |
| 20260902111442 | 63 | 228 | 0.0 | 2.0 | 0.00 | 0.00 | 0.00 | 81 | 1018.4 |
| 20260902110945 | 63 | 244 | 1.0 | 2.0 | 0.00 | 0.00 | 0.00 | 81 | 1018.5 |
| 20260902110438 | 63 | 245 | 0.0 | 3.0 | 0.00 | 0.00 | 0.00 | 81 | 1018.4 |
| 20260902105945 | 63 | 211 | 0.0 | 3.0 | 0.00 | 0.00 | 0.00 | 81 | 1018.4 |
| 20260902105439 | 63 | 218 | 0.0 | 4.0 | 0.00 | 0.00 | 0.00 | 82 | 1018.4 |
| 20260902104938 | 63 | 168 | 5.0 | 5.0 | 0.00 | 0.00 | 0.00 | 81 | 1018.4 |
| 20260902104445 | 63 | 142 | 0.0 | 2.0 | 0.00 | 0.00 | 0.00 | 82 | 1018.4 |
| 20260902103941 | 63 | 142 | 0.0 | 4.0 | 0.00 | 0.00 | 0.00 | 81 | 1018.2 |
| 20260902103438 | 63 | 135 | 1.0 | 1.0 | 0.00 | 0.00 | 0.00 | 82 | 1018.1 |
| 20260902102941 | 63 | 135 | 0.0 | 2.0 | 0.00 | 0.00 | 0.00 | 82 | 1018.0 |
| 20260902102444 | 63 | 157 | 0.0 | 4.0 | 0.00 | 0.00 | 0.00 | 82 | 1018.1 |
| 20260902101941 | 63 | 129 | 3.0 | 3.0 | 0.00 | 0.00 | 0.00 | 82 | 1018.0 |
| 20260902101444 | 63 | 129 | 1.0 | 2.0 | 0.00 | 0.00 | 0.00 | 83 | 1017.9 |
| 20260902100941 | 63 | 129 | 0.0 | 2.0 | 0.00 | 0.00 | 0.00 | 83 | 1018.0 |
| 20260902100441 | 63 | 129 | 0.0 | 3.0 | 0.00 | 0.00 | 0.00 | 83 | 1018.0 |
| 20260902095941 | 63 | 139 | 0.0 | 0.0 | 0.00 | 0.00 | 0.00 | 84 | 1017.9 |
| 20260902095442 | 63 | 139 | 0.0 | 4.0 | 0.00 | 0.00 | 0.00 | 83 | 1017.9 |
| 20260902094941 | 63 | 138 | 0.0 | 3.0 | 0.00 | 0.00 | 0.00 | 83 | 1017.9 |
| 20260902094438 | 63 | 353 | 0.0 | 3.0 | 0.00 | 0.00 | 0.00 | 83 | 1017.9 |
| 20260902093938 | 63 | 142 | 0.0 | 3.0 | 0.00 | 0.00 | 0.00 | 83 | 1018.0 |
| 20260902093438 | 63 | 142 | 0.0 | 1.0 | 0.00 | 0.00 | 0.00 | 84 | 1018.0 |
| 20260902092938 | 63 | 142 | 0.0 | 3.0 | 0.00 | 0.00 | 0.00 | 83 | 1018.0 |
| 20260902092438 | 63 | 152 | 0.0 | 0.0 | 0.00 | 0.00 | 0.00 | 84 | 1017.9 |
| 20260902091941 | 63 | 152 | 0.0 | 2.0 | 0.00 | 0.00 | 0.00 | 84 | 1017.9 |
| 20260902091441 | 63 | 152 | 0.0 | 2.0 | 0.00 | 0.00 | 0.00 | 84 | 1017.8 |
| 20260902090941 | 63 | 152 | 0.0 | 2.0 | 0.00 | 0.00 | 0.00 | 84 | 1017.9 |
| 20260902090441 | 63 | 155 | 2.0 | 2.0 | 0.00 | 0.00 | 0.00 | 84 | 1017.8 |
| 20260902085938 | 63 | 159 | 0.0 | 3.0 | 0.00 | 0.00 | 0.00 | 84 | 1017.7 |
| 20260902085439 | 63 | 162 | 0.0 | 1.0 | 0.00 | 0.00 | 0.00 | 84 | 1017.7 |
| 20260902084938 | 63 | 162 | 0.0 | 2.0 | 0.00 | 0.00 | 0.00 | 84 | 1017.8 |
| 20260902084438 | 63 | 162 | 0.0 | 1.0 | 0.00 | 0.00 | 0.00 | 84 | 1017.8 |
| 20260902083938 | 63 | 162 | 0.0 | 2.0 | 0.00 | 0.00 | 0.00 | 84 | 1017.8 |
| 20260902083438 | 63 | 139 | 0.0 | 2.0 | 0.00 | 0.00 | 0.00 | 84 | 1017.9 |
| 20260902082938 | 63 | 146 | 0.0 | 1.0 | 0.00 | 0.00 | 0.00 | 84 | 1017.9 |
| 20260902082438 | 64 | 146 | 0.0 | 2.0 | 0.00 | 0.00 | 0.00 | 84 | 1017.9 |
| 20260902081938 | 64 | 146 | 0.0 | 1.0 | 0.00 | 0.00 | 0.00 | 84 | 1017.9 |
| 20260902081438 | 64 | 146 | 0.0 | 5.0 | 0.00 | 0.00 | 0.00 | 83 | 1017.9 |
| 20260902080944 | 64 | 185 | 1.0 | 2.0 | 0.00 | 0.00 | 0.00 | 83 | 1017.8 |
| 20260902080444 | 64 | 185 | 1.0 | 3.0 | 0.00 | 0.00 | 0.00 | 83 | 1017.8 |
| 20260902075938 | 64 | 186 | 0.0 | 4.0 | 0.00 | 0.00 | 0.00 | 83 | 1017.7 |
| 20260902075441 | 64 | 171 | 0.0 | 3.0 | 0.00 | 0.00 | 0.00 | 83 | 1017.9 |
| 20260902074938 | 64 | 158 | 0.0 | 2.0 | 0.00 | 0.00 | 0.00 | 83 | 1018.0 |
| 20260902074444 | 64 | 161 | 0.0 | 2.0 | 0.00 | 0.00 | 0.00 | 83 | 1017.9 |
| 20260902073938 | 64 | 161 | 0.0 | 2.0 | 0.00 | 0.00 | 0.00 | 83 | 1017.9 |
| 20260902073438 | 64 | 108 | 0.0 | 3.0 | 0.00 | 0.00 | 0.00 | 84 | 1018.0 |
| 20260902072941 | 64 | 106 | 0.0 | 3.0 | 0.00 | 0.00 | 0.00 | 84 | 1018.0 |
| 20260902072438 | 64 | 109 | 1.0 | 1.0 | 0.00 | 0.00 | 0.00 | 84 | 1018.0 |
| 20260902071938 | 64 | 108 | 0.0 | 1.0 | 0.00 | 0.00 | 0.00 | 84 | 1018.0 |
| 20260902071437 | 64 | 108 | 0.0 | 1.0 | 0.00 | 0.00 | 0.00 | 85 | 1018.1 |
| 20260902070941 | 64 | 108 | 0.0 | 1.0 | 0.00 | 0.00 | 0.00 | 85 | 1018.1 |
| 20260902070440 | 64 | 108 | 0.0 | 1.0 | 0.00 | 0.00 | 0.00 | 85 | 1018.1 |
| 20260902065941 | 63 | 108 | 0.0 | 0.0 | 0.00 | 0.00 | 0.00 | 85 | 1018.1 |
| 20260902065437 | 63 | 108 | 0.0 | 3.0 | 0.00 | 0.00 | 0.00 | 85 | 1018.1 |
| 20260902064938 | 64 | 108 | 0.0 | 0.0 | 0.00 | 0.00 | 0.00 | 85 | 1018.1 |
| 20260902064440 | 64 | 108 | 0.0 | 0.0 | 0.00 | 0.00 | 0.00 | 85 | 1018.0 |
| 20260902063937 | 64 | 108 | 0.0 | 1.0 | 0.00 | 0.00 | 0.00 | 85 | 1018.0 |
| 20260902063437 | 63 | 109 | 0.0 | 2.0 | 0.00 | 0.00 | 0.00 | 85 | 1018.0 |
| 20260902062940 | 63 | 109 | 1.0 | 1.0 | 0.00 | 0.00 | 0.00 | 85 | 1018.0 |
| 20260902062437 | 63 | 108 | 0.0 | 2.0 | 0.00 | 0.00 | 0.00 | 85 | 1017.9 |
| 20260902061943 | 63 | 106 | 0.0 | 1.0 | 0.00 | 0.00 | 0.00 | 85 | 1017.9 |
| 20260902061440 | 63 | 106 | 0.0 | 1.0 | 0.00 | 0.00 | 0.00 | 85 | 1017.9 |
| 20260902060941 | 63 | 106 | 0.0 | 3.0 | 0.00 | 0.00 | 0.00 | 85 | 1017.8 |
| 20260902060437 | 63 | 123 | 0.0 | 0.0 | 0.00 | 0.00 | 0.00 | 86 | 1017.7 |
| 20260902055943 | 63 | 123 | 0.0 | 2.0 | 0.00 | 0.00 | 0.00 | 85 | 1017.8 |
| 20260902055437 | 63 | 112 | 0.0 | 1.0 | 0.00 | 0.00 | 0.00 | 85 | 1017.8 |
| 20260902054937 | 64 | 114 | 0.0 | 3.0 | 0.00 | 0.00 | 0.00 | 85 | 1017.8 |
| 20260902054438 | 64 | 92 | 0.0 | 0.0 | 0.00 | 0.00 | 0.00 | 85 | 1017.9 |
| 20260902053937 | 64 | 92 | 0.0 | 0.0 | 0.00 | 0.00 | 0.00 | 85 | 1017.9 |
| 20260902053437 | 64 | 92 | 0.0 | 0.0 | 0.00 | 0.00 | 0.00 | 84 | 1017.9 |
| 20260902052937 | 64 | 92 | 0.0 | 0.0 | 0.00 | 0.00 | 0.00 | 84 | 1017.9 |
| 20260902052437 | 64 | 92 | 0.0 | 0.0 | 0.00 | 0.00 | 0.00 | 84 | 1018.0 |
| 20260902051940 | 64 | 92 | 0.0 | 1.0 | 0.00 | 0.00 | 0.00 | 84 | 1018.0 |
| 20260902051437 | 64 | 92 | 0.0 | 0.0 | 0.00 | 0.00 | 0.00 | 83 | 1018.0 |
| 20260902050937 | 64 | 92 | 0.0 | 0.0 | 0.00 | 0.00 | 0.00 | 82 | 1018.0 |
| 20260902050437 | 64 | 92 | 0.0 | 1.0 | 0.00 | 0.00 | 0.00 | 82 | 1017.9 |
| 20260902045941 | 65 | 92 | 0.0 | 0.0 | 0.00 | 0.00 | 0.00 | 81 | 1017.8 |
| 20260902045443 | 65 | 92 | 0.0 | 0.0 | 0.00 | 0.00 | 0.00 | 80 | 1017.7 |
| 20260902044937 | 65 | 92 | 0.0 | 0.0 | 0.00 | 0.00 | 0.00 | 80 | 1017.8 |
| 20260902044440 | 65 | 92 | 0.0 | 0.0 | 0.00 | 0.00 | 0.00 | 79 | 1017.8 |
| 20260902043943 | 65 | 92 | 0.0 | 0.0 | 0.00 | 0.00 | 0.00 | 78 | 1017.8 |
| 20260902043443 | 65 | 92 | 0.0 | 0.0 | 0.00 | 0.00 | 0.00 | 78 | 1017.8 |
| 20260902042940 | 65 | 92 | 0.0 | 1.0 | 0.00 | 0.00 | 0.00 | 77 | 1017.8 |
| 20260902042437 | 65 | 92 | 0.0 | 0.0 | 0.00 | 0.00 | 0.00 | 77 | 1017.8 |
| 20260902041940 | 65 | 92 | 0.0 | 0.0 | 0.00 | 0.00 | 0.00 | 77 | 1017.7 |
| 20260902041437 | 65 | 92 | 0.0 | 0.0 | 0.00 | 0.00 | 0.00 | 77 | 1017.7 |
| 20260902040943 | 66 | 92 | 0.0 | 0.0 | 0.00 | 0.00 | 0.00 | 77 | 1017.5 |
| 20260902040440 | 66 | 92 | 0.0 | 0.0 | 0.00 | 0.00 | 0.00 | 76 | 1017.5 |
| 20260902035937 | 66 | 92 | 0.0 | 1.0 | 0.00 | 0.00 | 0.00 | 75 | 1017.5 |
| 20260902035443 | 66 | 92 | 0.0 | 1.0 | 0.00 | 0.00 | 0.00 | 75 | 1017.3 |
| 20260902034940 | 66 | 92 | 0.0 | 0.0 | 0.00 | 0.00 | 0.00 | 75 | 1017.1 |
| 20260902034437 | 66 | 92 | 0.0 | 1.0 | 0.00 | 0.00 | 0.00 | 76 | 1017.0 |
| 20260902033937 | 66 | 92 | 0.0 | 1.0 | 0.00 | 0.00 | 0.00 | 75 | 1017.0 |
| 20260902033436 | 66 | 92 | 0.0 | 1.0 | 0.00 | 0.00 | 0.00 | 75 | 1017.1 |
| 20260902032936 | 66 | 85 | 0.0 | 0.0 | 0.00 | 0.00 | 0.00 | 76 | 1017.3 |
| 20260902032437 | 66 | 85 | 0.0 | 0.0 | 0.00 | 0.00 | 0.00 | 76 | 1017.2 |
| 20260902031937 | 66 | 85 | 0.0 | 3.0 | 0.00 | 0.00 | 0.00 | 76 | 1017.1 |
| 20260902031437 | 66 | 79 | 0.0 | 2.0 | 0.00 | 0.00 | 0.00 | 76 | 1017.1 |
| 20260902030939 | 65 | 74 | 0.0 | 1.0 | 0.00 | 0.00 | 0.00 | 77 | 1017.0 |
| 20260902030436 | 65 | 74 | 0.0 | 0.0 | 0.00 | 0.00 | 0.00 | 77 | 1016.9 |
| 20260902025937 | 65 | 74 | 0.0 | 1.0 | 0.00 | 0.00 | 0.00 | 77 | 1016.8 |
| 20260902025436 | 65 | 71 | 0.0 | 1.0 | 0.00 | 0.00 | 0.00 | 77 | 1016.8 |
| 20260902024937 | 66 | 71 | 0.0 | 0.0 | 0.00 | 0.00 | 0.00 | 78 | 1016.7 |
| 20260902024442 | 66 | 71 | 0.0 | 0.0 | 0.00 | 0.00 | 0.00 | 78 | 1016.7 |
| 20260902023937 | 66 | 71 | 0.0 | 1.0 | 0.00 | 0.00 | 0.00 | 78 | 1016.6 |
| 20260902023442 | 66 | 72 | 0.0 | 1.0 | 0.00 | 0.00 | 0.00 | 78 | 1016.8 |
| 20260902022936 | 66 | 65 | 0.0 | 1.0 | 0.00 | 0.00 | 0.00 | 78 | 1016.8 |
| 20260902022437 | 65 | 63 | 0.0 | 4.0 | 0.00 | 0.00 | 0.00 | 79 | 1016.7 |
| 20260902021939 | 65 | 185 | 1.0 | 2.0 | 0.00 | 0.00 | 0.00 | 80 | 1016.8 |
| 20260902021436 | 65 | 206 | 0.0 | 0.0 | 0.00 | 0.00 | 0.00 | 80 | 1016.9 |
| 20260902020939 | 65 | 206 | 0.0 | 0.0 | 0.00 | 0.00 | 0.00 | 81 | 1016.8 |
| 20260902020442 | 65 | 206 | 0.0 | 0.0 | 0.00 | 0.00 | 0.00 | 81 | 1017.0 |
| 20260902015936 | 65 | 206 | 0.0 | 0.0 | 0.00 | 0.00 | 0.00 | 81 | 1017.0 |
| 20260902015443 | 65 | 206 | 0.0 | 0.0 | 0.00 | 0.00 | 0.00 | 81 | 1017.0 |
| 20260902014942 | 65 | 206 | 0.0 | 1.0 | 0.00 | 0.00 | 0.00 | 81 | 1017.0 |
| 20260902014439 | 65 | 206 | 0.0 | 1.0 | 0.00 | 0.00 | 0.00 | 81 | 1016.8 |
| 20260902013939 | 65 | 206 | 0.0 | 2.0 | 0.00 | 0.00 | 0.00 | 81 | 1016.8 |
| 20260902013436 | 65 | 210 | 0.0 | 0.0 | 0.00 | 0.00 | 0.00 | 81 | 1016.8 |
| 20260902012942 | 65 | 210 | 0.0 | 0.0 | 0.00 | 0.00 | 0.00 | 81 | 1016.9 |
| 20260902012443 | 65 | 210 | 0.0 | 0.0 | 0.00 | 0.00 | 0.00 | 80 | 1016.8 |
| 20260902011936 | 65 | 210 | 0.0 | 0.0 | 0.00 | 0.00 | 0.00 | 80 | 1016.8 |
| 20260902011436 | 65 | 210 | 0.0 | 0.0 | 0.00 | 0.00 | 0.00 | 80 | 1016.8 |
| 20260902010936 | 65 | 210 | 0.0 | 0.0 | 0.00 | 0.00 | 0.00 | 81 | 1016.8 |
| 20260902010442 | 65 | 210 | 0.0 | 0.0 | 0.00 | 0.00 | 0.00 | 81 | 1016.7 |
| 20260902005936 | 65 | 210 | 0.0 | 0.0 | 0.00 | 0.00 | 0.00 | 81 | 1016.7 |
| 20260902005436 | 66 | 210 | 0.0 | 0.0 | 0.00 | 0.00 | 0.00 | 80 | 1016.7 |
| 20260902004942 | 66 | 210 | 0.0 | 0.0 | 0.00 | 0.00 | 0.00 | 80 | 1016.6 |
| 20260902004439 | 66 | 210 | 0.0 | 0.0 | 0.00 | 0.00 | 0.00 | 80 | 1016.6 |
| 20260902003939 | 66 | 210 | 0.0 | 0.0 | 0.00 | 0.00 | 0.00 | 80 | 1016.5 |
| 20260902003436 | 66 | 210 | 0.0 | 1.0 | 0.00 | 0.00 | 0.00 | 80 | 1016.5 |
| 20260902002936 | 66 | 210 | 0.0 | 0.0 | 0.00 | 0.00 | 0.00 | 80 | 1016.4 |
| 20260902002436 | 66 | 210 | 0.0 | 0.0 | 0.00 | 0.00 | 0.00 | 79 | 1016.4 |
| 20260902001939 | 66 | 210 | 0.0 | 0.0 | 0.00 | 0.00 | 0.00 | 79 | 1016.4 |
| 20260902001439 | 66 | 210 | 0.0 | 0.0 | 0.00 | 0.00 | 0.00 | 79 | 1016.4 |
| 20260902000936 | 67 | 210 | 0.0 | 0.0 | 0.00 | 0.00 | 0.00 | 79 | 1016.4 |
| 20260902000437 | 67 | 210 | 0.0 | 0.0 | 0.00 | 0.00 | 0.00 | 79 | 1016.5 |
| 20260901235936 | 67 | 210 | 0.0 | 0.0 | 0.00 | 0.00 | 0.00 | 77 | 1016.6 |
| 20260901235436 | 67 | 210 | 0.0 | 0.0 | 0.00 | 0.00 | 0.00 | 78 | 1016.7 |
| 20260901234939 | 67 | 210 | 0.0 | 0.0 | 0.00 | 0.00 | 0.00 | 78 | 1016.6 |
| 20260901234436 | 67 | 210 | 0.0 | 0.0 | 0.00 | 0.00 | 0.00 | 78 | 1016.6 |
| 20260901233936 | 67 | 210 | 0.0 | 0.0 | 0.00 | 0.00 | 0.00 | 77 | 1016.6 |
| 20260901233436 | 67 | 210 | 0.0 | 0.0 | 0.00 | 0.00 | 0.00 | 77 | 1016.6 |
| 20260901232939 | 67 | 210 | 0.0 | 0.0 | 0.00 | 0.00 | 0.00 | 77 | 1016.7 |
| 20260901232438 | 68 | 210 | 0.0 | 0.0 | 0.00 | 0.00 | 0.00 | 76 | 1016.6 |
| 20260901231939 | 68 | 210 | 0.0 | 0.0 | 0.00 | 0.00 | 0.00 | 77 | 1016.6 |
| 20260901231444 | 68 | 210 | 0.0 | 0.0 | 0.00 | 0.00 | 0.00 | 76 | 1016.5 |
| 20260901230941 | 68 | 210 | 0.0 | 0.0 | 0.00 | 0.00 | 0.00 | 76 | 1016.4 |
| 20260901230439 | 68 | 210 | 0.0 | 0.0 | 0.00 | 0.00 | 0.00 | 76 | 1016.2 |
| 20260901225942 | 69 | 210 | 0.0 | 0.0 | 0.00 | 0.00 | 0.00 | 75 | 1016.2 |
| 20260901225441 | 69 | 210 | 0.0 | 0.0 | 0.00 | 0.00 | 0.00 | 75 | 1016.1 |
| 20260901224938 | 69 | 210 | 0.0 | 0.0 | 0.00 | 0.00 | 0.00 | 76 | 1016.1 |
| 20260901224435 | 69 | 210 | 0.0 | 0.0 | 0.00 | 0.00 | 0.00 | 74 | 1016.1 |
| 20260901223935 | 69 | 210 | 0.0 | 0.0 | 0.00 | 0.00 | 0.00 | 75 | 1016.2 |
| 20260901223436 | 70 | 210 | 0.0 | 2.0 | 0.00 | 0.00 | 0.00 | 74 | 1016.1 |
| 20260901222935 | 70 | 218 | 0.0 | 0.0 | 0.00 | 0.00 | 0.00 | 74 | 1016.0 |
| 20260901222444 | 70 | 218 | 0.0 | 0.0 | 0.00 | 0.00 | 0.00 | 75 | 1016.0 |
| 20260901221938 | 70 | 218 | 0.0 | 0.0 | 0.00 | 0.00 | 0.00 | 74 | 1016.0 |
| 20260901221435 | 70 | 218 | 0.0 | 0.0 | 0.00 | 0.00 | 0.00 | 73 | 1016.0 |
| 20260901220935 | 70 | 218 | 0.0 | 0.0 | 0.00 | 0.00 | 0.00 | 75 | 1015.9 |
| 20260901220435 | 70 | 218 | 0.0 | 0.0 | 0.00 | 0.00 | 0.00 | 75 | 1015.9 |
| 20260901215938 | 70 | 218 | 0.0 | 0.0 | 0.00 | 0.00 | 0.00 | 75 | 1015.9 |
| 20260901215441 | 70 | 218 | 0.0 | 0.0 | 0.00 | 0.00 | 0.00 | 76 | 1015.9 |
| 20260901214939 | 71 | 218 | 0.0 | 0.0 | 0.00 | 0.00 | 0.00 | 74 | 1015.7 |
| 20260901214435 | 71 | 218 | 0.0 | 1.0 | 0.00 | 0.00 | 0.00 | 73 | 1015.8 |
| 20260901213935 | 71 | 227 | 0.0 | 0.0 | 0.00 | 0.00 | 0.00 | 75 | 1015.9 |
| 20260901213435 | 71 | 227 | 0.0 | 0.0 | 0.00 | 0.00 | 0.00 | 74 | 1015.9 |
| 20260901212941 | 71 | 227 | 0.0 | 0.0 | 0.00 | 0.00 | 0.00 | 74 | 1015.9 |
| 20260901212436 | 71 | 227 | 0.0 | 0.0 | 0.00 | 0.00 | 0.00 | 74 | 1015.9 |
| 20260901211935 | 72 | 227 | 0.0 | 0.0 | 0.00 | 0.00 | 0.00 | 73 | 1015.9 |
| 20260901211438 | 72 | 227 | 0.0 | 0.0 | 0.00 | 0.00 | 0.00 | 72 | 1015.9 |
| 20260901210935 | 72 | 227 | 0.0 | 0.0 | 0.00 | 0.00 | 0.00 | 70 | 1015.9 |
| 20260901210438 | 73 | 227 | 0.0 | 0.0 | 0.00 | 0.00 | 0.00 | 69 | 1015.9 |
| 20260901205935 | 73 | 227 | 0.0 | 0.0 | 0.00 | 0.00 | 0.00 | 69 | 1015.8 |
| 20260901205435 | 73 | 227 | 0.0 | 0.0 | 0.00 | 0.00 | 0.00 | 68 | 1015.7 |
| 20260901204941 | 74 | 227 | 0.0 | 0.0 | 0.00 | 0.00 | 0.00 | 68 | 1015.6 |
| 20260901204438 | 74 | 227 | 0.0 | 0.0 | 0.00 | 0.00 | 0.00 | 67 | 1015.7 |
| 20260901203935 | 74 | 227 | 0.0 | 1.0 | 0.00 | 0.00 | 0.00 | 67 | 1015.5 |
| 20260901203441 | 75 | 227 | 0.0 | 2.0 | 0.00 | 0.00 | 0.00 | 63 | 1015.5 |
| 20260901202935 | 75 | 227 | 0.0 | 0.0 | 0.00 | 0.00 | 0.00 | 69 | 1015.4 |
| 20260901202435 | 75 | 227 | 0.0 | 1.0 | 0.00 | 0.00 | 0.00 | 68 | 1015.4 |
| 20260901201938 | 75 | 227 | 0.0 | 1.0 | 0.00 | 0.00 | 0.00 | 65 | 1015.4 |
| 20260901201438 | 75 | 227 | 0.0 | 0.0 | 0.00 | 0.00 | 0.00 | 66 | 1015.3 |
| 20260901200935 | 75 | 227 | 0.0 | 1.0 | 0.00 | 0.00 | 0.00 | 68 | 1015.3 |
| 20260901200438 | 75 | 227 | 0.0 | 1.0 | 0.00 | 0.00 | 0.00 | 65 | 1015.2 |
| 20260901195935 | 75 | 227 | 0.0 | 0.0 | 0.00 | 0.00 | 0.00 | 65 | 1015.3 |
| 20260901195435 | 75 | 227 | 0.0 | 0.0 | 0.00 | 0.00 | 0.00 | 64 | 1015.2 |
| 20260901194941 | 75 | 227 | 0.0 | 2.0 | 0.00 | 0.00 | 0.00 | 63 | 1015.2 |